Flag for United Kingdom Weather past 2 weeks in Newport, Wales, United Kingdom

Now
75 °F

Scattered clouds.


Feels Like: 78 °F
Forecast: 59 / 79 °F
Wind: 8 mph from North

Location: Bristol / Lulsgate

Current Time: Jul 22, 2014 at 3:28:32 PM

Latest Report: Jul 22, 2014 at 2:50 PM


Visibility: N/A

Pressure: 30.21 "Hg

Humidity: 57%

Dew point: 59 °F

Location of NewportLocation

Historic Weather in Newport — Graph

°F

Newport temperature yesterday

Maximum temperature yesterday: 73 °F (at 2:20 PM)
Minimum temperature yesterday: 57 °F (at 4:50 AM)
Average temperature yesterday: 65 °F

Past Weeks' High & Low Weather Summary

 TemperatureHumidityPressure
High79 °F (Jul 17, 3:50 PM)100% (Jul 11, 11:20 PM)30.24 "Hg (Jul 11, 11:20 PM)
Low50 °F (Jul 10, 4:20 AM)47% (Jul 10, 2:20 PM)29.74 "Hg (Jul 19, 2:50 PM)
Average63 °F80%30.02 "Hg
* Reported Jul 7 2:20 PM — Jul 22 2:20 PM, Newport, Weather by CustomWeather, © 2014

Note: Actual official high and low records may vary slightly from our data, if they occured in-between our weather recording intervals... More about our weather records

Advertising

Newport weather history for previous 24 hours

 ConditionsComfort  
Time TempWeatherWind HumidityBarometerVisibility
2:20 PM
Jul 22
75 °FPassing clouds.8 mph57%30.21 "HgN/A
1:50 PM75 °FPassing clouds.6 mph57%30.24 "HgN/A
1:20 PM73 °FPassing clouds.7 mph61%30.24 "HgN/A
12:50 PM73 °FPassing clouds.6 mph61%30.24 "HgN/A
12:20 PM75 °FPassing clouds.3 mph54%30.24 "HgN/A
11:20 AM70 °FPassing clouds.3 mph69%30.24 "HgN/A
10:50 AM72 °FPassing clouds.3 mph61%30.24 "HgN/A
10:20 AM72 °FPassing clouds.5 mph65%30.24 "HgN/A
9:50 AM70 °FPassing clouds.5 mph64%30.24 "HgN/A
9:20 AM68 °FPassing clouds.6 mph73%30.24 "HgN/A
8:50 AM66 °FScattered clouds.7 mph78%30.24 "HgN/A
8:20 AM64 °FScattered clouds.6 mph78%30.24 "HgN/A
7:50 AM63 °FScattered clouds.7 mph83%30.24 "HgN/A
7:20 AM63 °FScattered clouds.7 mph83%30.24 "HgN/A
6:50 AM63 °FPassing clouds.8 mph83%30.21 "HgN/A
6:20 AM61 °FSunny.7 mph88%30.21 "Hg10 mi
5:50 AM59 °FClear.5 mph88%30.21 "Hg10 mi
5:20 AM59 °FClear.2 mph94%30.21 "Hg10 mi
4:50 AM59 °FClear.6 mph94%30.21 "Hg10 mi
4:20 AM59 °FClear.5 mph94%30.21 "Hg10 mi
3:50 AM59 °FClear.3 mph94%30.21 "Hg10 mi
2:50 AM57 °FClear.5 mph100%30.21 "Hg10 mi
2:20 AM59 °FClear.3 mph94%30.21 "Hg10 mi
1:50 AM59 °FClear.3 mph94%30.21 "Hg10 mi
1:20 AM59 °FClear.8 mph94%30.21 "Hg10 mi
12:50 AM59 °FClear.9 mph94%30.21 "Hg10 mi
12:20 AM61 °FClear.6 mph88%30.21 "Hg10 mi
11:50 PM
Jul 21
61 °FClear.9 mph88%30.21 "Hg10 mi
11:20 PM61 °FClear.8 mph88%30.21 "Hg10 mi
10:20 PM61 °FClear.7 mph94%30.21 "Hg10 mi
9:50 PM63 °FSunny.8 mph88%30.18 "Hg10 mi
9:20 PM63 °FSunny.8 mph88%30.18 "Hg10 mi
8:50 PM64 °FSunny.8 mph83%30.18 "Hg10 mi
8:20 PM66 °FPassing clouds.12 mph73%30.18 "HgN/A
7:50 PM68 °FPassing clouds.10 mph69%30.18 "HgN/A
7:20 PM70 °FPassing clouds.10 mph69%30.18 "HgN/A
6:50 PM70 °FPassing clouds.12 mph69%30.15 "HgN/A
6:20 PM70 °FPassing clouds.13 mph69%30.15 "HgN/A
5:50 PM72 °FPassing clouds.13 mph69%30.15 "HgN/A
5:20 PM73 °FPassing clouds.9 mph65%30.15 "HgN/A
4:50 PM73 °FPassing clouds.7 mph61%30.15 "HgN/A
4:20 PM72 °FPassing clouds.8 mph65%30.15 "HgN/A
3:50 PM73 °FPassing clouds.8 mph61%30.15 "HgN/A
3:20 PM73 °FScattered clouds.7 mph61%30.15 "HgN/A
Weather by CustomWeather, © 2014

See weather overviewHow to use our weather pages